Regional Weather Roundup
Issued by NWS

Home | Current Version | Previous Version | Text Only | Print | Product List | Glossary Off
Versions: 1 2 3 4 5 6 7 8 9 10 11 12 13 14 15 16 17 18 19 20 21 22 23 24 25 26 27 28 29 30 31 32 33 34 35 36 37 38 39 40 41 42 43 44 45 46 47 48 49 50

000
ASUS45 KSLC 011710
RWRUT

UTAH REGIONAL WEATHER ROUNDUP
NATIONAL WEATHER SERVICE SALT LAKE CITY UT
1100 AM MDT MON SEP 01 2014

UTZ001>011-023>025-011800-

NORTHERN UTAH

CITY           SKY/WX    TMP DP  RH WIND       PRES   REMARKS
HILL AFB       SUNNY     67  36  32 VRB3      30.12R
LOGAN          SUNNY     63  44  50 CALM      30.11R
OGDEN          SUNNY     70  34  26 VRB3      30.11R
PROVO AIRPORT  NOT AVBL
SALT LAKE CITY MOSUNNY   71  37  28 NW8       30.09R
VERNAL         SUNNY     65  37  35 S7        30.11S
WENDOVER       SUNNY     72  37  28 SE6       30.11R
HEBER CITY     SUNNY     61  37  41 CALM      30.15S
WEST JORDAN    SUNNY     72  48  43 NW5       30.12R

$$

UTZ012>022-026-027-011800-

SOUTHERN UTAH

CITY           SKY/WX    TMP DP  RH WIND       PRES   REMARKS
BRYCE CANYON   SUNNY     72  34  24 W13       30.26R
CEDAR CITY     SUNNY     75  32  20 N6        30.13R
MILFORD        SUNNY     75  38  26 N6        30.11R
MOAB/CYNLANDS  SUNNY     78  34  20 VRB5      30.03S
PRICE          SUNNY     70  32  24 S3        30.13S
ST GEORGE      SUNNY     81  39  22 CALM      29.97S
KANAB            N/A     81  39  22 S12       30.12S

$$

REGIONAL REPORTS     COLORADO/ARIZONA

CITY           SKY/WX    TMP DP  RH WIND       PRES   REMARKS
CRAIG, CO      SUNNY     64  41  42 N3        30.15F
GRAND JUNCTION SUNNY     71  36  27 S6        30.08S
RIFLE          SUNNY     64  42  44 VRB3      30.13F
MONTROSE       SUNNY     70  37  29 CALM      30.15F
CORTEZ         SUNNY     75  37  25 SW6       30.15S
PAGE, AZ       SUNNY     83  33  16 N5        30.04R
GRAND CANYON   SUNNY     75  41  29 W10G18    30.23F
KINGMAN        SUNNY     90  41  18 VRB5      29.98S
FLAGSTAFF      SUNNY     73  43  33 SW9       30.27S

$$

REGIONAL REPORTS    NEVADA/IDAHO/WYOMING

CITY           SKY/WX    TMP DP  RH WIND       PRES   REMARKS
LAS VEGAS, NV  SUNNY     91  34  13 SW5       29.84R
ELY            SUNNY     70  32  24 CALM      30.19R
ELKO           SUNNY     67  34  29 CALM      30.14F
POCATELLO, ID  MOSUNNY   64  40  41 W12G20    30.12S
BURLEY         SUNNY     65  43  44 W12G20    30.11R
EVANSTON, WY   MOSUNNY   63  33  32 W22       30.19R
ROCK SPRINGS   SUNNY     62  32  32 W18       30.15R

$$


USA.gov is the U.S. government's official web portal to all federal, state and local government web resources and services.